Casper, WY (82601)

12:18 PM MST on February 20, 2017 (GMT -0700)
Grant Avenue | | Change Station
Active Advisory: High Wind Warning

Elev 5164 ft 42.84 °N, 106.32 °W | Updated 2 minutes ago

Clear
Clear
51.1 °F
Feels Like 51.1 °F
N
7.5
Wind Variable Wind from SSE
Gusts 16.8 mph

Today
High -- | Low -- °F
--% Chance of Precip.
Yesterday
High -- | Low -- °F
Precip. -- in
Pressure 29.91 in
Visibility 10.0 miles
Clouds Clear
Dew Point 30 °F
Humidity 44%
Rainfall 0.00 in
Snow Depth Not available.
6:54 AM 5:43 PM
Waning Crescent, 32% visible
METAR KCPR 201853Z 22029G39KT 10SM CLR 09/M03 A2994 RMK AO2 PK WND 21041/1828 RAB28E52 SLP127 P0000 T00941028
Pressure 29.91 in
Visibility 10.0 miles
Clouds Clear
Dew Point 30 °F
Humidity 44%
Rainfall 0.00 in
Snow Depth Not available.
6:54 AM 5:43 PM
Waning Crescent, 32% visible
METAR KCPR 201853Z 22029G39KT 10SM CLR 09/M03 A2994 RMK AO2 PK WND 21041/1828 RAB28E52 SLP127 P0000 T00941028

Get Your Daily Forecast Email!

Thanks for signing up!

Be on the lookout for a verification email in your inbox.

You'll start receiving the daily forecast at 8 AM.

×

10-Day Weather Forecast

Almanac

Astronomy

Feb. 20, 2017 Rise Set
Actual Time
Civil Twilight
Nautical Twilight
Astronomical Twilight
Moon
Length of Visible Light
Length of Day
Tomorrow will be .
, % of the Moon is Illuminated

Today's Extremes

State Highs State Lows

Community

WunderPhotos

Upload Photos

1,962,540 photos uploaded!

WunderBlog® & News

Nearby

Air Quality

  Air Quality AQ Index Pollutant
Not available.

Snow Depth

Station Depth Elevation

Earthquake Activity

City Distance Mag. Time & Date
Minimum magnitude displayed is 2.5.

Coastal Water Temperatures

Place Temperature

Stations

Nearby Weather Stations

Station Location Temp. Windchill Dew Point Humidity Wind Precip. Elev Updated Type
                   

Watches & Warnings

High Wind Warning
Issued: 11:08 AM MST Feb. 20, 2017 – National Weather Service

... High Wind Warning now in effect until 11 PM MST Tuesday...

* timing... high winds are expected to develop this afternoon
continuing through Tuesday night.

* Winds... west wind 35 to 45 mph gusting to 65 mph, locally
higher up to 75 mph on outer drive on the south side of
Casper.

* Impacts... strong cross winds may produce an extreme blow over
threat for trucks pulling light weight and high profile
trailers.

Precautionary/preparedness actions...

A High Wind Warning means a hazardous high wind event is expected
or occurring. Sustained wind speeds of at least 40 mph or gusts
of 58 mph or more can lead to property damage.